Home > Weather > Augsburg > Past weeks

Flag for Germany Weather for the Past 2 Weeks in Augsburg, Bavaria, Germany

Now
52 °F

Clear.


Feels Like: 45 °F
Forecast: 35 / 40 °F
Wind: 23 mph from Southwest

Location: Augsburg Airport

Current Time: Feb 9, 2016 at 7:49:52 PM

Latest Report: Feb 9, 2016 at 6:50 PM


Visibility: 10 mi

Pressure: 29.24 "Hg

Humidity: 50%

Dew point: 34 °F

Location of AugsburgLocation

Historic Weather in Augsburg — Graph

°F

Augsburg Temperature Yesterday

Maximum temperature yesterday: 55 °F (at 1:20 PM)
Minimum temperature yesterday: 39 °F (at 6:20 AM)
Average temperature yesterday: 48 °F

High & Low Weather Summary for the Past Weeks

 TemperatureHumidityPressure
High57 °F (Jan 26, 2:20 PM)100% (Jan 25, 6:50 PM)30.45 "Hg (Jan 25, 6:50 PM)
Low30 °F (Feb 6, 7:50 AM)41% (Feb 8, 1:20 PM)29.24 "Hg (Feb 9, 6:50 PM)
Average45 °F75%30.09 "Hg
* Reported Jan 25 6:20 PM — Feb 9 6:50 PM, Augsburg, Weather by CustomWeather, © 2016

Note: Actual official high and low records may vary slightly from our data, if they occured in-between our weather recording intervals... More about our weather records

Advertising

Augsburg Weather History for the Previous 24 Hours

 ConditionsComfort  
Time TempWeatherWind HumidityBarometerVisibility
6:50 PM
Tue, Feb 9
52 °FClear.23 mph50%29.24 "Hg10 mi
6:20 PM50 °FLight rain. Partly cloudy.10 mph58%29.27 "HgN/A
5:50 PM46 °FPartly cloudy.5 mph71%29.27 "HgN/A
5:20 PM48 °FScattered clouds.5 mph66%29.30 "HgN/A
4:50 PM46 °FSunny.1 mph71%29.30 "Hg10 mi
4:20 PM48 °FSunny.5 mph66%29.30 "Hg10 mi
3:50 PM50 °FBroken clouds.7 mph58%29.30 "HgN/A
3:20 PM50 °FScattered clouds.6 mph62%29.36 "HgN/A
2:50 PM50 °FPassing clouds.5 mph62%29.36 "HgN/A
2:20 PM50 °FPassing clouds.6 mph62%29.39 "HgN/A
1:50 PM50 °FSunny.7 mph62%29.42 "Hg10 mi
1:20 PM50 °FPassing clouds.9 mph62%29.42 "HgN/A
12:50 PM50 °FSunny.12 mph62%29.45 "Hg10 mi
12:20 PM48 °FSunny.10 mph66%29.47 "Hg10 mi
11:20 AM46 °FPartly sunny.12 mph71%29.59 "HgN/A
10:50 AM46 °FSunny.9 mph71%29.59 "Hg10 mi
10:20 AM45 °FSunny.8 mph76%29.59 "Hg10 mi
9:50 AM45 °FSunny.10 mph76%29.62 "Hg10 mi
8:50 AM43 °FSunny.3 mph81%29.65 "Hg10 mi
8:20 AM43 °FSunny.7 mph76%29.68 "Hg10 mi
7:50 AM43 °FSunny.6 mph76%29.68 "Hg10 mi
7:20 AM45 °FClear.10 mph71%29.71 "Hg10 mi
6:50 AM45 °FPassing clouds.12 mph71%29.71 "HgN/A
6:20 AM43 °FPassing clouds.8 mph76%29.71 "HgN/A
8:50 PM
Mon, Feb 8
41 °FRain. Partly cloudy.23 mph87%29.74 "Hg5 mi
8:20 PM48 °FPassing clouds.20 mph66%29.71 "HgN/A
7:50 PM46 °FPassing clouds.18 mph76%29.68 "HgN/A
7:20 PM52 °FLight rain. Passing clouds.23 mph54%29.65 "HgN/A
Weather by CustomWeather, © 2016

See weather overviewHow to use our weather pages